Location: Beuvrequen
(50.8014°N, 1.6652°E)
Time: 03:59:31
(UTC+00:00)

Cosmos 2227 Rocket - Pass Details

Date: 16 October 2021
Orbit: 839 x 845 km, 71.0° (Epoch: 05 December)

Event Time Altitude Azimuth Distance (km) Brightness Sun altitude
Rises 17:40:33 0° 328° (NNW) 3,416 5.7 -7.4°
Reaches altitude 10° 17:43:02 10° 325° (NW) 2,477 5.1 -7.7°
Maximum altitude 17:48:36 60° 247° (WSW) 964 2.9 -8.6°
Drops below altitude 10° 17:54:09 10° 168° (SSE) 2,458 4.5 -9.5°
Sets 17:56:36 0° 165° (SSE) 3,388 5.2 -9.9°
